CAPE
3 3 2 2 1 1 1 0 0 0 0 0 0 3 3 2 0 0 0 0 0 962 1395 2 45 184 197 55 98 150 177 83 74 138 127 141 183 405 370 570 529 543 378 483 394
5 3 2 2 2 1 1 1 0 0 0 0 0 1 3 0 0 0 0 0 28 1499 0 0 0 32 0 0 0 31 205 92 31 70 277 194 199 561 603 538 476 679 462 404 421
5 5 3 2 1 1 1 1 0 1 1 1 1 1 2 0 0 0 0 0 301 904 0 0 0 0 0 0 0 0 81 72 46 23 226 261 291 467 263 440 370 687 676 523 545
3 3 4 4 2 1 1 1 2 1 2 2 1 1 0 0 0 0 0 0 443 0 0 0 0 0 0 0 0 0 0 0 27 43 162 336 345 390 248 175 274 490 709 705 727
2 3 2 3 3 2 1 3 3 2 2 2 2 1 0 0 0 0 0 0 0 0 0 0 0 0 0 0 0 0 0 0 0 1 22 344 410 360 358 346 408 659 857 767 775
6 7 6 4 3 1 2 5 5 3 1 2 3 1 0 0 0 0 0 0 0 0 0 0 0 0 0 0 0 0 0 0 0 0 69 416 527 564 429 283 797 873 985 857 844
11 9 7 6 2 0 1 2 4 2 3 2 0 0 0 0 0 0 0 0 0 0 0 0 0 0 0 0 0 0 0 0 1 49 289 379 665 610 538 605 1102 1050 1027 935 922
7 4 2 2 2 4 4 6 2 2 0 1 1 0 0 0 0 0 0 0 0 0 0 0 0 0 0 0 0 0 0 19 72 202 399 452 245 541 728 799 1203 1051 1047 948 992
7 4 4 6 7 6 3 3 1 0 1 1 0 0 0 0 0 0 0 0 0 0 0 0 0 0 0 0 0 0 1 9 220 264 515 520 203 550 790 831 991 986 825 897 1046
14 9 5 4 5 2 1 0 0 0 0 0 0 0 0 0 0 0 0 0 0 0 0 0 0 0 0 0 0 1 0 29 39 287 433 447 270 627 822 766 691 1066 846 811 870
8 5 5 3 3 0 0 0 0 0 0 0 0 0 0 0 0 0 0 0 0 0 0 0 0 0 0 0 0 3 25 43 46 238 354 258 229 356 849 793 724 930 1018 912 726
6 7 4 1 0 0 0 0 0 0 0 0 0 0 0 0 0 0 0 0 0 0 0 0 0 0 0 0 0 0 3 36 85 145 204 162 226 256 420 861 648 664 962 1170 966
3 5 3 2 0 0 0 0 0 0 0 0 0 0 0 0 0 0 0 0 0 0 0 0 0 0 0 0 0 0 0 17 88 133 170 119 212 159 144 578 674 564 580 978 1068
4 2 2 0 0 0 0 0 0 0 0 0 0 0 0 0 0 0 0 0 0 0 0 0 0 0 0 0 0 0 0 3 41 91 111 145 133 65 136 507 639 807 625 526 984
2 0 0 0 0 0 0 0 0 0 0 0 0 0 0 0 0 0 0 0 0 0 0 0 0 0 0 0 0 0 0 0 3 68 100 136 136 63 89 135 479 796 799 503 353
3 0 1 0 0 0 0 0 0 0 0 0 0 0 0 0 0 0 0 0 0 0 0 0 0 0 0 0 0 0 0 4 16 31 80 91 70 10 21 88 82 267 627 700 307
0 0 0 0 0 0 0 0 0 0 0 0 0 0 0 0 0 0 0 0 0 0 0 0 0 0 0 0 0 0 0 14 35 40 41 60 58 1 1 12 30 16 147 679 487
0 0 0 0 0 0 0 0 0 0 0 0 0 0 0 0 0 0 0 0 0 0 0 0 0 0 0 0 0 0 0 8 40 26 29 13 6 0 16 17 0 3 52 407 639
0 0 0 0 0 0 0 0 0 0 0 0 0 0 0 0 0 0 0 0 0 0 0 0 0 0 0 0 0 0 0 0 27 48 28 2 1 0 1 16 3 29 82 199 623
0 0 0 0 0 0 0 0 0 0 0 0 0 0 0 0 0 0 0 0 0 0 0 0 0 0 0 0 0 0 0 0 7 77 47 8 16 0 16 0 0 13 98 239 555
0 0 0 0 0 0 0 0 0 0 0 0 0 0 0 0 0 0 0 0 0 0 0 0 0 0 0 0 0 0 0 0 1 10 17 34 3 0 0 0 0 0 110 150 453
0 0 0 0 0 0 0 0 0 0 0 0 0 0 0 0 0 0 0 0 0 0 0 0 0 0 0 0 0 0 0 0 6 4 12 17 1 2 0 0 0 0 5 9 240
0 0 0 0 0 0 0 0 0 0 0 0 0 0 0 0 0 0 0 0 0 0 0 1 0 9 0 0 0 0 0 0 0 1 110 27 1 0 0 0 0 48 102 114 443
1 0 0 1 0 0 0 0 0 0 0 0 0 0 0 0 0 0 0 0 0 0 17 0 0 0 0 0 0 0 0 0 0 3 3 8 36 16 0 0 0 1 112 195 728
14 0 1 0 72 72 55 42 2 0 0 0 0 0 0 0 0 0 0 0 0 0 0 21 23 28 0 0 0 0 0 0 0 0 4 0 13 17 6 0 0 0 3 213 851
36 51 37 0 0 0 0 0 36 2 5 0 0 0 0 0 0 0 0 0 0 0 0 7 102 47 43 8 7 3 0 0 0 0 0 0 0 1 2 0 0 0 0 244 960
28 24 28 1 0 0 0 3 11 41 4 0 0 0 0 0 0 0 0 0 0 0 0 33 188 326 158 91 65 57 11 8 0 0 0 0 0 0 0 0 0 7 128 276 914
CIN
0 0 0 0 0 0 0 0 0 0 0 0 0 0 0 0 0 0 0 0 0 -442 -349 -50 -224 -158 -108 -52 -61 -33 -1 0 0 -1 -3 -22 -14 -33 -43 -27 -30 -19 -17 -45 -99
0 0 0 0 0 0 0 0 0 0 0 0 0 0 0 0 0 0 0 0 -99 -338 0 0 0 -132 0 0 0 -8 0 0 0 -1 -1 -19 -15 -27 -40 -38 -20 -23 -31 -66 -100
0 0 0 0 0 0 0 0 0 0 0 0 0 0 0 0 0 0 0 0 -190 -345 0 0 0 0 0 0 0 0 -1 0 -1 -4 0 -13 -20 -25 -16 -26 -26 -25 -42 -69 -81
0 0 0 0 0 0 0 0 0 0 0 0 0 0 0 0 0 0 0 0 -390 0 0 0 0 0 0 0 0 0 0 0 0 -10 -5 -7 -6 -22 -22 -16 -32 -34 -50 -69 -59
0 0 0 0 0 0 0 0 0 0 0 0 0 0 0 0 0 0 0 0 0 0 0 0 0 0 0 0 0 0 0 0 0 -7 -3 -4 -5 -10 -19 -40 -46 -63 -70 -58 -48
0 0 0 0 0 0 0 0 0 0 0 0 0 0 0 0 0 0 0 0 0 0 0 0 0 0 0 0 0 0 0 0 0 0 -4 -3 -4 -7 -11 -22 -48 -66 -72 -67 -53
0 0 0 0 0 0 0 0 0 0 0 0 0 0 0 0 0 0 0 0 0 0 0 0 0 0 0 0 0 0 0 0 -6 -8 -11 -4 -17 -9 -10 -31 -38 -52 -62 -69 -64
0 0 0 0 0 0 0 0 0 0 0 0 0 0 0 0 0 0 0 0 0 0 0 0 0 0 0 0 0 0 0 0 -5 -16 -24 -7 -1 -13 -17 -12 -20 -42 -57 -83 -85
0 0 0 0 0 0 0 0 0 -1 0 0 0 0 0 0 0 0 0 0 0 0 0 0 0 0 0 0 0 0 0 0 -4 -18 -35 -11 0 -16 -22 -6 -6 -30 -48 -64 -76
0 0 0 0 0 0 0 0 0 0 0 0 0 0 0 0 0 0 0 0 0 0 0 0 0 0 0 0 0 0 0 0 0 -19 -16 -7 0 -25 -24 -14 -6 -14 -28 -53 -63
0 0 0 0 0 0 0 0 0 0 0 0 0 0 0 0 0 0 0 0 0 0 0 0 0 0 0 0 0 0 0 0 0 -6 -7 -2 -6 -7 -31 -12 -14 -9 -12 -24 -48
0 0 0 0 0 0 0 0 0 0 0 0 0 0 0 0 0 0 0 0 0 0 0 0 0 0 0 0 0 0 0 0 0 -10 -6 0 -4 -10 -22 -33 -18 -26 -28 -19 -20
0 0 0 0 0 0 0 0 0 0 0 0 0 0 0 0 0 0 0 0 0 0 0 0 0 0 0 0 0 0 0 0 -1 -12 -10 0 -2 -5 -13 -36 -50 -50 -57 -43 -34
0 0 0 0 0 0 0 0 0 0 0 0 0 0 0 0 0 0 0 0 0 0 0 0 0 0 0 0 0 0 0 0 0 0 0 -3 -1 -8 -2 -23 -46 -63 -59 -71 -82
0 0 0 0 0 0 0 0 0 0 0 0 0 0 0 0 0 0 0 0 0 0 0 0 0 0 0 0 0 0 0 0 0 0 0 0 0 0 -6 -4 -18 -37 -54 -78 -90
0 0 0 0 0 0 0 0 0 0 0 0 0 0 0 0 0 0 0 0 0 0 0 0 0 0 0 0 0 0 0 0 -1 0 0 0 0 0 -3 -10 -4 -11 -32 -60 -78
0 0 0 0 0 0 0 0 0 0 0 0 0 0 0 0 0 0 0 0 0 0 0 0 0 0 0 0 0 0 0 0 0 0 0 0 0 0 -1 -7 -4 0 -14 -53 -76
0 0 0 0 0 0 0 0 0 0 0 0 0 0 0 0 0 0 0 0 0 0 0 0 0 0 0 0 0 0 0 0 0 0 0 0 0 0 -34 -14 -1 -5 -15 -36 -63
0 0 0 0 0 0 0 0 0 0 0 0 0 0 0 0 0 0 0 0 0 0 0 0 0 0 0 0 0 0 0 0 0 0 0 0 0 0 -10 -24 -7 -7 -20 -28 -47
0 0 0 0 0 0 0 0 0 0 0 0 0 0 0 0 0 0 0 0 0 0 0 0 0 0 0 0 0 0 0 0 0 0 0 0 0 0 -27 0 0 -3 -16 -18 -39
0 0 0 0 0 0 0 0 0 0 0 0 0 0 0 0 0 0 0 0 0 0 0 0 0 0 0 0 0 0 0 0 0 0 0 0 0 0 0 0 0 0 -11 -11 -25
0 0 0 0 0 0 0 0 0 0 0 0 0 0 0 0 0 0 0 0 0 0 0 0 0 0 0 0 0 0 0 0 0 0 0 0 0 0 0 0 0 0 0 -2 -16
0 0 0 0 0 0 0 0 0 0 0 0 0 0 0 0 0 0 0 0 0 0 0 0 0 0 0 0 0 0 0 0 0 0 0 0 0 0 0 0 0 -11 -5 -8 -58
0 0 0 0 0 0 0 0 0 0 0 0 0 0 0 0 0 0 0 0 0 0 -156 0 0 0 0 0 0 0 0 0 0 0 0 0 -1 -1 0 0 0 -1 -18 -23 -90
0 0 0 0 0 0 0 0 0 0 0 0 0 0 0 0 0 0 0 0 0 0 0 -10 -2 0 0 0 0 0 0 0 0 0 0 0 0 0 0 0 0 0 0 -15 -86
0 0 0 0 0 0 0 0 0 0 0 0 0 0 0 0 0 0 0 0 0 0 0 -2 -6 0 0 0 0 0 0 0 0 0 0 0 0 0 0 0 0 0 0 -10 -61
0 0 0 0 0 0 0 -14 -6 0 -16 0 0 0 0 0 0 0 0 0 0 0 0 -5 -1 0 -4 0 0 0 0 0 0 0 0 0 0 0 0 0 0 -12 -6 -16 -47
Wind_Speed
21 21 21 21 21 21 20 20 20 20 20 21 20 18 18 17 17 8 10 6 8 19 10 12 11 8 8 7 8 4 8 4 6 4 12 14 10 7 7 12 8 9 7 20 21
20 21 21 22 22 21 21 20 19 20 21 20 19 19 17 17 9 14 5 4 7 20 16 16 13 11 9 7 6 9 8 6 4 1 13 15 11 13 10 13 10 10 9 22 21
20 20 21 21 22 22 22 21 20 20 20 20 18 17 16 14 12 3 6 9 10 17 14 16 10 12 12 9 8 7 11 6 2 1 11 18 12 12 10 12 12 15 17 23 22
22 22 22 22 22 22 22 22 22 22 20 19 17 15 13 7 7 6 9 9 18 17 10 15 14 15 12 13 11 10 10 10 7 7 11 17 16 11 10 4 13 14 20 24 23
22 22 23 23 22 22 22 21 21 22 21 18 16 11 8 9 15 6 7 9 13 18 17 19 19 18 16 11 10 12 12 9 10 8 11 14 15 10 12 9 11 16 21 24 22
22 22 22 22 23 24 22 21 22 22 22 19 13 7 7 16 3 7 7 10 9 19 19 20 15 19 10 12 11 4 7 9 10 9 11 13 11 11 13 13 12 18 22 22 22
22 22 22 23 24 26 25 23 23 24 21 17 7 7 8 19 2 8 9 8 9 18 17 22 19 17 14 11 12 8 12 5 9 12 10 13 11 14 12 13 13 18 19 21 21
24 24 24 25 25 26 26 24 25 21 11 8 8 8 10 2 3 11 13 12 9 14 16 13 21 16 19 6 7 14 14 13 11 15 9 15 12 16 16 16 15 17 18 20 21
22 24 26 26 26 25 26 28 19 4 3 9 8 7 8 7 9 6 10 10 11 12 10 11 16 17 17 15 16 15 14 13 12 14 8 16 5 16 15 16 15 15 18 19 19
22 22 24 26 27 27 28 23 1 7 7 7 6 7 7 6 10 2 6 8 12 15 11 16 12 15 15 18 17 18 18 11 13 15 12 17 9 6 13 16 16 17 18 19 20
23 23 25 25 26 25 18 4 7 9 10 11 7 15 7 5 7 5 8 13 11 18 15 19 20 21 23 22 20 17 15 13 15 15 17 15 13 11 11 14 16 17 18 19 20
23 24 25 27 26 26 9 8 4 6 14 17 24 24 21 12 10 17 14 16 15 18 18 16 23 22 23 22 24 21 18 17 14 9 15 12 13 12 13 16 17 19 19 19 19
24 23 24 28 29 10 9 2 4 9 10 10 10 10 9 18 15 16 24 20 20 21 21 19 18 21 20 22 24 23 21 18 15 11 15 11 14 14 15 15 16 17 19 20 20
24 23 23 28 12 10 3 5 7 6 8 6 8 8 9 6 10 14 25 22 18 23 21 20 19 23 17 24 22 24 22 18 14 13 13 16 12 14 15 15 17 20 21 21 22
22 23 20 12 13 7 5 5 9 5 8 9 9 9 9 10 5 8 17 26 22 19 21 19 23 21 23 23 24 23 21 19 18 15 18 16 12 12 6 14 19 23 24 24 23
23 25 19 7 8 13 12 9 5 9 10 7 9 13 12 13 5 6 14 20 16 20 17 23 16 21 20 21 22 20 18 13 17 15 19 23 15 15 12 14 16 16 22 24 24
24 26 21 9 6 1 6 7 8 12 5 10 10 14 11 7 10 11 18 23 19 21 21 20 21 16 19 22 23 22 18 12 16 16 15 18 20 15 11 12 15 16 17 22 23
28 31 6 9 8 11 7 9 16 5 18 4 5 11 13 9 9 15 17 20 25 22 15 18 22 26 16 28 25 27 25 16 24 15 14 21 17 17 18 17 21 14 13 19 24
31 8 8 5 11 7 10 17 11 16 10 14 14 15 16 14 8 10 19 21 24 25 23 20 25 24 25 18 28 28 28 25 25 20 18 17 14 23 16 14 16 14 13 16 22
11 12 8 6 10 9 11 25 21 16 10 13 17 12 14 17 14 13 16 16 20 24 22 14 14 23 22 21 26 30 20 25 21 26 23 20 19 11 18 18 17 14 15 17 20
9 7 7 5 10 9 16 22 23 25 17 19 18 20 14 15 14 11 7 11 15 20 21 21 13 14 23 28 27 21 25 22 23 22 20 18 19 16 16 15 17 14 14 16 18
6 7 6 6 10 11 17 20 15 19 24 25 17 21 19 16 16 14 12 9 9 16 25 22 15 16 17 26 28 26 26 26 19 26 20 23 18 15 14 18 22 21 16 11 12
6 8 3 7 10 14 15 17 18 23 22 23 28 22 18 18 20 17 17 13 11 11 15 20 19 14 19 19 17 27 31 28 27 21 25 21 17 17 10 12 13 12 14 7 8
7 6 7 8 12 13 17 14 20 17 21 24 21 21 24 23 18 10 12 14 11 17 7 9 19 23 17 20 19 25 25 29 29 24 22 26 21 21 19 17 17 15 15 10 8
6 5 4 6 6 7 13 16 15 16 14 16 21 22 20 20 21 20 17 10 10 8 6 9 16 17 21 22 20 24 28 28 31 30 30 21 29 25 22 20 18 19 16 11 12
6 6 5 10 14 15 12 13 14 15 9 16 17 21 21 20 19 17 21 18 17 14 15 13 12 13 20 23 25 23 26 27 27 28 30 31 31 22 25 23 23 22 20 15 16
3 6 5 8 8 8 11 11 8 10 11 16 15 12 8 8 8 10 10 13 14 11 13 15 13 11 17 18 22 25 27 27 29 27 25 25 25 29 26 22 24 22 19 17 18
Wind_Direction
355 353 350 345 341 338 337 336 333 332 331 331 333 333 331 330 300 200 258 252 182 163 212 170 191 191 202 225 239 260 249 141 90 257 124 150 152 153 103 138 174 158 151 141 147
354 350 347 343 339 336 333 331 329 328 327 328 329 329 330 331 288 272 289 220 153 167 182 184 186 188 215 225 209 240 275 83 42 118 147 161 166 156 171 158 171 156 127 143 156
351 348 344 341 337 333 330 327 327 324 323 322 324 324 323 314 276 233 53 134 164 189 200 202 198 206 237 233 204 211 265 88 207 213 162 165 175 167 172 177 177 171 154 156 164
348 345 341 338 335 330 326 324 323 321 320 318 318 319 319 279 291 86 123 147 163 198 231 208 207 214 231 222 219 255 242 275 284 165 186 170 157 183 174 115 166 166 163 163 172
343 341 338 335 332 327 324 322 319 318 315 313 311 315 279 245 259 138 169 191 187 193 215 207 206 212 232 230 232 242 266 269 263 206 193 175 173 160 177 132 154 159 167 173 177
341 338 334 332 330 325 322 321 317 314 309 305 298 283 253 267 50 150 155 158 198 202 208 216 219 218 259 244 233 293 260 274 259 191 178 186 169 170 176 160 166 167 174 179 183
341 338 334 331 328 324 321 319 315 309 300 290 258 229 249 255 282 182 195 229 212 206 212 216 224 206 222 233 228 231 243 225 231 166 168 198 175 209 142 163 165 179 181 182 188
339 337 333 330 326 322 318 316 314 306 290 253 192 226 261 126 237 236 232 226 213 215 228 229 219 253 244 235 202 221 231 222 156 172 159 198 188 194 157 173 175 181 181 187 191
337 335 329 328 324 321 317 313 310 304 132 156 201 243 266 121 223 195 194 202 188 184 209 192 201 229 208 219 216 209 230 216 151 192 157 203 240 158 176 187 179 184 184 188 193
335 334 329 328 324 324 322 303 165 168 179 221 266 241 241 228 153 240 187 183 170 175 169 191 201 206 222 211 214 208 224 191 193 187 191 199 215 136 184 200 193 187 191 194 196
333 333 329 327 323 322 322 230 215 188 203 261 297 265 265 197 177 211 177 185 180 181 190 192 203 208 207 216 229 225 208 215 213 155 203 213 218 182 188 208 208 195 197 199 204
331 332 329 326 322 318 282 304 38 356 292 260 252 261 261 266 264 237 189 196 195 199 203 181 215 211 225 216 230 238 225 218 188 168 219 214 230 226 192 211 210 205 203 208 206
329 331 331 326 319 287 326 313 6 318 264 279 235 247 237 201 226 239 193 211 201 207 198 209 203 219 214 223 223 224 230 216 215 180 227 250 231 231 209 207 211 215 211 209 208
326 331 334 330 286 343 294 159 309 317 269 209 197 184 169 186 225 221 207 203 214 214 201 220 213 207 205 226 219 225 223 234 220 202 223 205 245 221 212 205 211 210 212 213 208
323 323 330 327 306 283 20 319 308 233 278 118 147 131 156 215 10 159 199 203 208 214 205 204 209 193 216 215 217 232 226 218 245 217 239 179 241 257 177 223 215 216 210 211 209
321 318 328 292 240 261 301 296 237 230 238 179 166 182 186 203 204 122 188 213 224 216 218 231 199 216 221 215 224 226 250 233 233 234 229 231 211 230 208 229 239 221 212 209 207
317 312 305 272 253 357 289 239 226 239 103 185 194 193 202 189 190 180 185 196 202 202 204 214 203 215 214 211 209 217 212 205 216 224 240 207 231 229 248 216 242 263 205 209 205
317 310 266 244 226 251 252 223 233 237 217 118 209 189 227 196 208 195 190 205 213 211 209 208 209 208 194 214 202 213 216 225 219 220 217 231 234 229 234 261 261 256 253 192 203
313 303 266 240 208 221 222 217 222 229 235 238 216 231 222 203 256 208 215 212 211 218 226 207 227 199 218 216 222 201 220 228 243 226 245 224 208 239 245 247 250 249 220 204 205
312 302 259 167 171 198 225 235 227 257 248 237 228 212 228 213 207 209 210 218 221 212 224 223 235 222 200 215 221 230 209 220 229 237 227 232 240 216 216 227 243 220 222 213 203
282 291 72 184 189 208 228 225 231 246 252 251 236 246 232 239 227 215 238 205 213 200 216 230 215 211 211 207 212 208 224 219 236 228 243 239 232 226 233 253 269 269 217 224 204
297 277 81 186 235 228 238 239 259 249 227 247 252 251 241 237 231 221 227 233 196 222 203 213 218 230 218 224 215 226 213 217 222 224 237 248 243 220 233 227 240 245 261 226 213
282 280 273 235 253 245 246 251 255 253 238 234 233 240 238 237 235 247 235 240 255 230 220 206 224 213 230 221 205 228 225 221 229 238 226 228 229 249 214 238 263 250 245 233 229
279 286 207 204 253 284 289 286 265 243 254 252 247 231 224 227 230 245 217 222 231 232 10 276 218 221 225 225 220 213 227 236 232 231 230 241 240 224 222 230 248 251 244 239 216
250 249 29 292 254 322 299 289 289 271 248 245 242 244 220 218 219 216 237 234 222 188 209 228 239 233 230 254 240 234 219 222 233 239 241 236 234 235 240 249 244 253 252 230 213
288 315 344 290 281 277 271 261 270 271 265 259 238 226 234 231 232 229 227 235 243 225 231 219 250 256 242 242 239 238 232 239 228 235 242 242 248 236 230 234 243 246 247 230 217
256 262 262 278 258 279 269 259 285 349 280 262 301 312 278 273 307 296 297 290 284 251 235 232 236 212 241 230 232 241 242 227 228 236 232 234 236 237 246 239 231 235 231 230 220